sat.trackr.live / text

‹ back to catalog

SHIJIAN-29B (SJ-29B)

NORAD 67403 · 2025-315C

PAYLOAD ACTIVE UNKNOWN

§ Identity

Operator
Country
PRC
Launch date
2025-12-30
Launch site
WSC
Launch vehicle
Mass (kg)
RCS (m²)

Purposes: comms

External: N2YO · Heavens-Above · Gunter

§ Orbital elements

Epoch: 2026-09-19T20:37:51.640608Z

Period
1,436.12 min
Inclination
3.6304°
Eccentricity
0.0006910
Mean motion
1.00269903 rev/d
Perigee alt
35,758.0 km
Apogee alt
35,816.3 km
Semi-major
42,165.3 km
B*
0.0000e+0
RAAN
92.8122°
Arg perigee
86.9307°
Mean anomaly
201.9969°
Rev number
263

§ Raw data

SHIJIAN-29B (SJ-29B)1 67403U 25315C   26262.85962547 -.00000074  00000+0  00000+0 0  99902 67403   3.6304  92.8122 0006910  86.9307 201.9969  1.00269903  2638

JSON: /api/v1/satellites/67403 · /tle

For live sub-satellite position, see the globe view (requires WebGL).

§ Visibility from observer

Set your observer location to see the next 7 days of passes ≥ 10°. The values pass through the URL so the page stays shareable.

No JS? Fill the form by hand. The geolocation button needs JavaScript.